Kenosha, WI

6:17 AM CST on February 24, 2018 (GMT -0600)
Kenosha Regional

Weather History for KENW - November, 2013

Change the Weather History Date:

Thursday, November 21, 2013

  Actual Average Record
Temperature  
Mean Temperature 44 °F -  
Max Temperature 48 °F 42 °F 66 °F (1990)
Min Temperature 39 °F 28 °F 6 °F (1964)
Degree Days  
Heating Degree Days 22    
Moisture  
Dew Point 38 °F    
Average Humidity 82    
Maximum Humidity 92    
Minimum Humidity 71    
Precipitation  
Precipitation 0.00 in - - ()
Sea Level Pressure  
Sea Level Pressure 30.17 in    
Wind  
Wind Speed 4 mph (ENE)    
Max Wind Speed 7 mph    
Max Gust Speed -    
Visibility 4 miles    
Events      
Averages and records for this station are not official NWS values.
T = Trace of Precipitation, MM = Missing Value Source: NWS Daily Summary

Daily Weather History Graph

Daily Weather History Graph

Search for Another Location

Airport or City:

Trip Planner

Search our weather history database for the weather conditions in past years. The results will help you decide how hot, cold, wet, or windy it might be!

Date:

Astronomy

Nov. 21, 2013 Rise Set
Actual Time 6:50 AM CST 4:24 PM CST
Civil Twilight 6:19 AM CST 4:55 PM CST
Nautical Twilight 5:45 AM CST 5:29 PM CST
Astronomical Twilight 5:11 AM CST 6:03 PM CST
Moon 8:01 PM CST (11/21) 9:56 AM CST (11/21)
Length of Visible Light 10h 35m
Length of Day
9h 33m
Waning Gibbous, 85% of the Moon is Illuminated
Nov 21
Waning Gibbous
Nov 25
Last Quarter
Dec 2
New
Dec 9
First Quarter
Dec 17
Full

Hourly Weather History & Observations

Time (CST) Temp. Windchill Dew Point Humidity Pressure Visibility Wind Dir Wind Speed Gust Speed Precip Events Conditions
12:53 AM 39.9 °F 35.8 °F 36.0 °F 86% 30.15 in 5.0 mi SE 5.8 mph - N/A   Overcast
1:53 AM 41.0 °F 37.1 °F 37.0 °F 86% 30.15 in 5.0 mi SE 5.8 mph - 0.00 in   Overcast
2:53 AM 42.1 °F 38.4 °F 37.9 °F 85% 30.14 in 4.0 mi SE 5.8 mph - N/A   Overcast
3:53 AM 42.1 °F 39.2 °F 39.0 °F 89% 30.13 in 4.0 mi SE 4.6 mph - N/A   Overcast
4:53 AM 42.1 °F 40.2 °F 39.9 °F 92% 30.13 in 4.0 mi SE 3.5 mph - N/A   Overcast
5:53 AM 43.0 °F 41.3 °F 37.9 °F 82% 30.13 in 6.0 mi SSW 3.5 mph - N/A   Haze
6:53 AM 42.1 °F 39.2 °F 37.0 °F 82% 30.14 in 6.0 mi SSW 4.6 mph - N/A   Haze
7:53 AM 43.0 °F 41.3 °F 37.9 °F 82% 30.16 in 5.0 mi SW 3.5 mph - N/A   Haze
8:53 AM 44.1 °F 42.5 °F 37.9 °F 79% 30.17 in 5.0 mi SW 3.5 mph - N/A   Haze
9:53 AM 46.0 °F 43.9 °F 39.0 °F 76% 30.17 in 5.0 mi SSW 4.6 mph - N/A   Haze
10:53 AM 46.9 °F - 39.9 °F 77% 30.17 in 6.0 mi SW 4.6 mph - N/A   Haze
11:53 AM 48.0 °F - 39.0 °F 71% 30.16 in 6.0 mi WNW 4.6 mph - N/A   Haze
12:53 PM 46.9 °F - 39.9 °F 77% 30.16 in 5.0 mi Calm Calm - N/A   Haze
1:53 PM 48.0 °F - 39.0 °F 71% 30.15 in 5.0 mi Calm Calm - N/A   Haze
2:53 PM 46.9 °F - 39.9 °F 77% 30.14 in 5.0 mi Calm Calm - N/A   Haze
3:53 PM 46.0 °F 43.9 °F 39.9 °F 79% 30.15 in 4.0 mi ENE 4.6 mph - N/A   Haze
4:53 PM 45.0 °F - 39.0 °F 80% 30.19 in 5.0 mi Calm Calm - N/A   Haze
5:09 PM 45.0 °F 43.5 °F 39.0 °F 80% 30.17 in 5.0 mi NNE 3.5 mph - N/A   Haze
5:53 PM 44.1 °F 40.8 °F 39.0 °F 82% 30.19 in 4.0 mi North 5.8 mph - N/A   Haze
6:53 PM 43.0 °F 40.3 °F 37.9 °F 82% 30.19 in 4.0 mi NNE 4.6 mph - N/A   Haze
7:53 PM 43.0 °F 39.5 °F 37.9 °F 82% 30.21 in 4.0 mi NNE 5.8 mph - N/A   Haze
8:53 PM 42.1 °F - 37.9 °F 85% 30.22 in 3.0 mi Calm Calm - N/A   Overcast
9:36 PM 42.1 °F 38.4 °F 37.9 °F 85% 30.19 in 2.5 mi NNE 5.8 mph - N/A   Overcast
9:43 PM 42.1 °F 39.2 °F 37.9 °F 85% 30.20 in 3.0 mi North 4.6 mph - N/A   Overcast
9:53 PM 42.1 °F 39.2 °F 37.9 °F 85% 30.21 in 3.0 mi NNE 4.6 mph - N/A   Overcast
10:53 PM 42.1 °F 38.4 °F 37.9 °F 85% 30.22 in 3.0 mi North 5.8 mph - N/A   Overcast
11:53 PM 42.1 °F 37.7 °F 37.9 °F 85% 30.22 in 3.0 mi NNW 6.9 mph - N/A   Overcast